Back to catalog

SL-6 R/B(2)

AliveHEO
NORAD 19611·ROCKET BODY·🇷🇺 Russia

Launched Oct 25, 1988 from Plesetsk Cosmodrome

Loading…

Next Passes (next 24 hours)

TLE

FreshSource: Space-Track

Epoch: Sep 8, 2026, 05:43 UTC

1 19611U 88096D   26251.23840237 -.00000885  00000-0  00000+0 0  9995
2 19611  67.4783 352.4436 6314154  28.4373 354.7133  2.04287367282415

Track SL-6 R/B(2) in real time with AllMySat

Download on the App Store